Location: Observatoire
(46.1952°N, 5.3391°E)
Time: 18:32:26
(UTC+01:00)

Transit 2A - All Passes

Search period start: 16 February 2026 00:00
Search period end: 26 February 2026 00:00
Orbit: 589 x 955 km, 66.7° (Epoch: 16 February)

Date Brightness Start Highest point End Pass type
(mag) Time Alt. Az. Time Alt. Az. Time Alt. Az.
16 Feb - 12:02:56 10° SE 12:06:24 16° ESE 12:09:56 10° ENE daylight
16 Feb - 13:42:24 10° SSW 13:48:33 82° ESE 13:54:55 10° NE daylight
16 Feb - 15:27:08 10° W 15:32:23 27° NW 15:37:44 10° NNE daylight
16 Feb - 17:15:22 10° NW 17:17:47 12° NNW 17:20:09 10° N daylight
16 Feb - 19:01:31 10° N 19:03:51 12° NNE 19:06:09 10° NE visible
16 Feb - 20:43:59 10° NNW 20:49:12 28° NE 20:54:05 10° E visible
16 Feb - 22:26:54 10° NW 22:32:55 73° WSW 22:38:24 10° SSE visible
17 Feb - 00:12:55 10° W 00:14:47 12° W 00:16:37 10° WSW visible
17 Feb - 13:06:14 10° SSW 13:12:15 59° ESE 13:18:28 10° NE daylight
17 Feb - 14:50:05 10° WSW 14:55:43 35° NW 15:01:29 10° NNE daylight
17 Feb - 16:37:43 10° NW 16:40:49 14° NNW 16:43:54 10° N daylight
17 Feb - 18:25:11 10° N 18:26:52 11° N 18:28:32 10° NNE daylight
17 Feb - 20:07:46 10° NNW 20:12:28 22° NNE 20:16:55 10° E visible
17 Feb - 21:50:29 10° NNW 21:56:35 81° NE 22:02:06 10° SE visible
17 Feb - 23:35:02 10° WNW 23:38:49 18° WSW 23:42:26 10° SW visible
18 Feb - 12:30:19 10° S 12:36:01 42° ESE 12:41:54 10° NE daylight
18 Feb - 14:13:12 10° WSW 14:19:08 45° NW 14:25:13 10° NNE daylight
18 Feb - 16:00:08 10° WNW 16:03:55 16° NNW 16:07:41 10° NNE daylight
18 Feb - 17:48:35 10° N 17:49:51 11° N 17:51:06 10° NNE daylight
18 Feb - 19:31:33 10° NNW 19:35:40 18° NNE 19:39:37 10° ENE visible
18 Feb - 21:14:08 10° NNW 21:20:09 59° NE 21:25:37 10° SE visible
18 Feb - 22:57:58 10° NW 23:02:47 27° WSW 23:07:16 10° SSW visible
19 Feb - 11:54:41 10° SSE 11:59:52 30° ESE 12:05:13 10° NE daylight
19 Feb - 13:36:31 10° SW 13:42:37 61° NW 13:48:55 10° NNE daylight
19 Feb - 15:22:39 10° WNW 15:27:04 19° NNW 15:31:28 10° NNE daylight
19 Feb - 17:11:28 10° NNW 17:12:50 11° N 17:14:11 10° N daylight
19 Feb - 18:55:20 10° NNW 18:58:48 15° NNE 19:02:09 10° ENE visible
19 Feb - 20:37:50 10° NNW 20:43:38 43° NE 20:48:56 10° ESE visible
19 Feb - 22:21:13 10° NW 22:26:41 39° WSW 22:31:40 10° S visible
20 Feb - 11:19:25 10° SSE 11:23:47 21° ESE 11:28:16 10° ENE daylight
20 Feb - 13:00:00 10° SW 13:06:12 82° NW 13:12:35 10° NNE daylight
20 Feb - 14:45:20 10° W 14:50:17 24° NW 14:55:16 10° NNE daylight
20 Feb - 16:33:56 10° NNW 16:35:49 11° N 16:37:42 10° N daylight
20 Feb - 18:19:07 10° N 18:21:53 13° NNE 18:24:35 10° NE daylight
20 Feb - 20:01:34 10° NNW 20:07:01 33° NE 20:12:04 10° ESE visible
20 Feb - 21:44:38 10° NW 21:50:29 56° WSW 21:55:46 10° SSE visible
21 Feb - 10:44:49 10° SE 10:47:46 14° E 10:50:46 10° ENE daylight
21 Feb - 12:23:41 10° SSW 12:29:50 74° ESE 12:36:10 10° NE daylight
21 Feb - 14:08:09 10° W 14:13:34 29° NW 14:19:01 10° NNE daylight
21 Feb - 15:56:15 10° NW 15:58:51 12° NNW 16:01:25 10° N daylight
21 Feb - 17:42:52 10° N 17:44:55 12° NNE 17:46:55 10° NNE daylight
21 Feb - 19:25:20 10° NNW 19:30:21 26° NE 19:35:02 10° E visible
21 Feb - 21:08:10 10° NW 21:14:12 81° WSW 21:19:37 10° SSE visible
21 Feb - 22:53:35 10° WNW 22:56:09 13° W 22:58:39 10° SW visible
22 Feb - 11:47:35 10° S 11:53:33 53° ESE 11:59:41 10° NE daylight
22 Feb - 13:31:09 10° WSW 13:36:55 38° NW 13:42:47 10° NNE daylight
22 Feb - 15:18:36 10° NW 15:21:54 14° NNW 15:25:11 10° N daylight
22 Feb - 17:06:30 10° N 17:07:55 11° N 17:09:18 10° NNE daylight
22 Feb - 18:49:06 10° NNW 18:53:35 21° NNE 18:57:49 10° ENE visible
22 Feb - 20:31:46 10° NNW 20:37:49 73° NE 20:43:16 10° SE visible
22 Feb - 22:16:04 10° WNW 22:20:11 20° WSW 22:24:02 10° SSW visible
23 Feb - 11:11:44 10° S 11:17:20 38° ESE 11:23:05 10° NE daylight
23 Feb - 12:54:19 10° WSW 13:00:21 50° NW 13:06:30 10° NNE daylight
23 Feb - 14:41:02 10° WNW 14:45:01 17° NNW 14:48:58 10° NNE daylight
23 Feb - 16:29:47 10° N 16:30:54 10° N 16:32:00 10° N daylight
23 Feb - 18:12:54 10° NNW 18:16:46 17° NNE 18:20:28 10° ENE daylight
23 Feb - 19:55:26 10° NNW 20:01:21 53° NE 20:06:43 10° SE visible
23 Feb - 21:39:07 10° NW 21:44:07 30° WSW 21:48:42 10° SSW visible
24 Feb - 10:36:12 10° SSE 10:41:12 27° ESE 10:46:20 10° NE daylight
24 Feb - 12:17:40 10° SW 12:23:52 67° NW 12:30:12 10° NNE daylight
24 Feb - 14:03:35 10° WNW 14:08:11 20° NNW 14:12:45 10° NNE daylight
24 Feb - 15:52:28 10° NNW 15:53:53 11° N 15:55:17 10° N daylight
24 Feb - 17:36:41 10° N 17:39:52 14° NNE 17:42:57 10° NE daylight
24 Feb - 19:19:08 10° NNW 19:24:48 39° NE 19:29:58 10° ESE visible
24 Feb - 21:02:25 10° NW 21:07:58 43° WSW 21:13:00 10° S visible
25 Feb - 10:01:06 10° SE 10:05:09 18° ESE 10:09:16 10° ENE daylight
25 Feb - 11:41:13 10° SSW 11:47:27 89° WNW 11:53:50 10° NNE daylight
25 Feb - 13:26:18 10° W 13:31:25 25° NW 13:36:32 10° NNE daylight
25 Feb - 15:14:49 10° NNW 15:16:52 12° NNW 15:18:55 10° N daylight
25 Feb - 17:00:29 10° N 17:02:56 12° NNE 17:05:20 10° NE daylight
25 Feb - 18:42:54 10° NNW 18:48:10 30° NE 18:53:03 10° E visible
25 Feb - 20:25:52 10° NW 20:31:45 63° WSW 20:37:02 10° SSE visible
